MUOS-4

Last updated on Tue Sep 22 2026 00:03:13 GMT+0000 (Coordinated Universal Time)

1 40887U 15044A 26264.60917340 -.00000093 00000+0 00000+0 0 9992 2 40887 4.5101 42.6629 0052767 3.6592 248.4635 1.00272449 40523
UTC large
Height (km)
Speed (km/s)
/
Latitude / Longitude
Inclination (degrees)
Orbital Period (minutes)
Azimuth
Elevation
Range (km)
Doppler Factor

Next 0 passes for location: London (51.5072 / 0.1276)

No passes found over London.
MUOS-4